Location: Baia Mare
(47.6567°N, 23.5850°E)
Time: 11:54:54
(UTC+02:00)

ISS - Pass Details

Date: 02 January 2019
Orbit: 404 x 407 km, 51.6° (Epoch: 16 January)

Event Time Altitude Azimuth Distance (km) Brightness Sun altitude
Exits shadow 05:04:18 10° 65° (ENE) 1,456 -0.3 -30.9°
Drops below altitude 10° 05:04:21 10° 65° (ENE) 1,474 -0.3 -30.9°
Sets 05:06:26 0° 67° (ENE) 2,336 1.0 -30.5°
